TimeMDT,TemperatureF,Dew PointF,Humidity,Sea Level PressureIn,VisibilityMPH,Wind Direction,Wind SpeedMPH,Gust SpeedMPH,PrecipitationIn,Events,Conditions,WindDirDegrees,DateUTC
12:55 AM,45.5,33.6,63,30.01,10.0,SSE,5.8,-,N/A,,Overcast,160,2012-10-22 06:55:00
1:55 AM,45.5,35.1,67,29.99,10.0,SE,8.1,-,N/A,,Overcast,140,2012-10-22 07:55:00
2:05 AM,46.4,35.6,66,29.99,10.0,SSE,8.1,-,N/A,,Overcast,150,2012-10-22 08:05:00
2:29 AM,44.6,35.6,71,29.97,10.0,SSE,10.4,-,N/A,,Overcast,150,2012-10-22 08:29:00
2:34 AM,44.6,35.6,71,29.97,10.0,SSE,12.7,-,N/A,,Overcast,150,2012-10-22 08:34:00
2:55 AM,45.0,34.9,68,29.94,10.0,SE,16.1,-,N/A,,Overcast,140,2012-10-22 08:55:00
3:55 AM,43.2,34.2,71,29.96,10.0,SSE,10.4,-,N/A,,Overcast,150,2012-10-22 09:55:00
4:16 AM,42.8,33.8,70,29.98,10.0,SE,10.4,-,N/A,,Overcast,130,2012-10-22 10:16:00
4:55 AM,41.2,33.8,75,29.97,10.0,SSE,12.7,-,N/A,,Overcast,150,2012-10-22 10:55:00
5:55 AM,41.7,33.8,73,29.98,10.0,SSE,13.8,-,N/A,,Overcast,150,2012-10-22 11:55:00
6:43 AM,41.0,33.8,76,29.99,10.0,SSE,6.9,-,N/A,,Light Drizzle,160,2012-10-22 12:43:00
6:55 AM,40.8,35.1,80,29.99,10.0,SE,10.4,-,0.00,Rain,Light Rain,140,2012-10-22 12:55:00
7:36 AM,39.2,35.6,87,29.99,10.0,South,10.4,-,N/A,,Overcast,170,2012-10-22 13:36:00
7:55 AM,39.6,36.1,88,29.99,10.0,SE,9.2,-,0.01,,Light Drizzle,140,2012-10-22 13:55:00
7:56 AM,39.2,35.6,87,29.99,10.0,SE,10.4,-,N/A,,Overcast,140,2012-10-22 13:56:00
7:58 AM,39.2,35.6,87,29.99,10.0,SE,10.4,-,N/A,,Light Drizzle,130,2012-10-22 13:58:00
8:32 AM,39.2,35.6,87,30.01,10.0,SE,13.8,-,N/A,,Overcast,140,2012-10-22 14:32:00
8:33 AM,39.2,35.6,87,30.01,10.0,SE,13.8,-,N/A,,Light Drizzle,140,2012-10-22 14:33:00
8:55 AM,39.9,37.0,89,30.00,10.0,SE,17.3,-,0.00,,Light Drizzle,130,2012-10-22 14:55:00
9:00 AM,41.0,37.4,87,29.99,10.0,SE,18.4,-,N/A,,Overcast,140,2012-10-22 15:00:00
9:55 AM,41.2,38.3,89,29.98,10.0,SE,16.1,-,0.00,,Overcast,140,2012-10-22 15:55:00
10:17 AM,42.8,39.2,87,29.97,10.0,SE,13.8,-,N/A,,Light Drizzle,140,2012-10-22 16:17:00
10:25 AM,42.8,39.2,87,29.96,10.0,SE,15.0,-,N/A,,Overcast,140,2012-10-22 16:25:00
10:37 AM,42.8,39.2,87,29.96,10.0,SE,12.7,-,N/A,,Overcast,140,2012-10-22 16:37:00
10:48 AM,42.8,39.2,87,29.97,10.0,SE,12.7,-,N/A,,Overcast,140,2012-10-22 16:48:00
10:55 AM,44.1,39.4,84,29.97,10.0,SSE,13.8,-,0.01,,Overcast,150,2012-10-22 16:55:00
11:05 AM,44.6,39.2,81,29.97,10.0,SSE,13.8,-,N/A,,Overcast,150,2012-10-22 17:05:00
11:24 AM,44.6,39.2,81,29.97,10.0,South,15.0,-,N/A,,Overcast,170,2012-10-22 17:24:00
11:55 AM,45.0,39.2,80,29.96,10.0,SSE,13.8,-,N/A,,Overcast,160,2012-10-22 17:55:00
12:55 PM,45.3,39.6,80,29.92,10.0,SSE,12.7,-,N/A,,Overcast,150,2012-10-22 18:55:00
1:03 PM,46.4,39.2,76,29.91,10.0,SE,13.8,-,N/A,,Overcast,140,2012-10-22 19:03:00
1:04 PM,46.4,39.2,76,29.91,10.0,SE,13.8,-,N/A,,Mostly Cloudy,140,2012-10-22 19:04:00
1:17 PM,46.4,39.2,76,29.89,10.0,SE,11.5,-,N/A,,Mostly Cloudy,140,2012-10-22 19:17:00
1:55 PM,47.3,39.7,75,29.87,10.0,SE,11.5,-,N/A,,Mostly Cloudy,140,2012-10-22 19:55:00
2:55 PM,47.3,39.6,74,29.84,10.0,SSE,13.8,-,N/A,,Overcast,150,2012-10-22 20:55:00
3:55 PM,46.6,39.2,75,29.84,10.0,SE,13.8,-,N/A,,Overcast,140,2012-10-22 21:55:00
4:55 PM,46.4,39.4,77,29.83,10.0,SE,15.0,-,N/A,,Mostly Cloudy,140,2012-10-22 22:55:00
5:44 PM,46.4,39.2,76,29.81,10.0,SSE,11.5,-,N/A,,Mostly Cloudy,150,2012-10-22 23:44:00
5:55 PM,45.5,39.4,79,29.82,10.0,SSE,9.2,-,N/A,,Mostly Cloudy,150,2012-10-22 23:55:00
6:22 PM,44.6,39.2,81,29.81,10.0,SE,11.5,-,N/A,,Overcast,140,2012-10-23 00:22:00
6:55 PM,45.0,39.6,81,29.81,10.0,SE,10.4,-,N/A,,Overcast,140,2012-10-23 00:55:00
7:55 PM,44.2,39.4,83,29.79,10.0,SSE,11.5,-,N/A,,Overcast,150,2012-10-23 01:55:00
8:55 PM,43.7,39.2,84,29.78,10.0,SSE,13.8,-,N/A,,Overcast,160,2012-10-23 02:55:00
9:17 PM,42.8,39.2,87,29.77,10.0,South,15.0,-,N/A,,Overcast,170,2012-10-23 03:17:00
9:55 PM,41.9,38.7,88,29.76,10.0,South,18.4,-,N/A,,Mostly Cloudy,170,2012-10-23 03:55:00
10:55 PM,40.6,38.5,92,29.73,10.0,South,19.6,-,N/A,,Clear,170,2012-10-23 04:55:00
11:55 PM,39.6,38.1,95,29.69,10.0,SE,17.3,-,N/A,,Clear,140,2012-10-23 05:55:00